FW4387 Weather Reports


time (UTC)temp
F
wind
direction
speed
knots
gust
knots
rain 1hr
in
rain 24hr
in
rain mn
in
humidity
%
barometer
mb
20260503054505 36 0.0 0.0 0.00 0.00 0.00 82 1017.2
20260503053005 37 0.0 0.0 0.00 0.00 0.00 81 1017.1
20260503051503 37 0.0 0.0 0.00 0.00 0.00 80 1017.1
20260503050004 37 0.0 0.0 0.00 0.00 0.00 80 1017.0
20260503044502 38 0.0 0.0 0.00 0.00 0.00 79 1017.1
20260503043002 38 0.0 0.0 0.00 0.00 0.00 79 1017.0
20260503041500 38 0.0 0.0 0.00 0.00 0.00 80 1016.9
20260503040100 38 0.0 0.0 0.00 0.00 0.00 80 1017.1
20260503034502 38 0.0 0.0 0.00 0.00 0.00 80 1017.0
20260503033002 38 0.0 0.0 0.00 0.00 0.00 79 1017.2
20260503031502 39 0.0 0.0 0.00 0.00 0.00 79 1017.2
20260503030003 38 0.0 0.0 0.00 0.00 0.00 79 1017.3
20260503024501 38 0.0 0.0 0.00 0.00 0.00 78 1017.4
20260503023100 39 0.0 0.0 0.00 0.00 0.00 76 1017.5
20260503021559 39 0.0 0.0 0.00 0.01 0.00 72 1017.4
20260503013056 43 0.0 0.0 0.00 0.01 0.00 66 1017.1
20260503011622 44 0.0 0.0 0.00 0.03 0.00 63 1017.0
20260503010056 44 0.0 0.0 0.00 0.03 0.00 59 1017.0
20260503003057 45 0.0 0.0 0.00 0.03 0.00 59 1016.9
20260503001555 45 0.0 0.0 0.00 0.03 0.00 59 1016.8
20260503000054 45 0.0 0.0 0.00 0.03 0.00 58 1016.7
20260502233057 46 0.0 0.0 0.00 0.03 0.00 55 1016.5
20260502231554 46 0.0 0.0 0.00 0.03 0.00 55 1016.5
20260502230059 46 0.0 0.0 0.00 0.03 0.00 54 1016.6
20260502223102 47 0.0 0.0 0.00 0.03 0.00 55 1016.5
20260502221552 47 0.0 0.0 0.00 0.03 0.00 53 1016.5
20260502220100 48 0.0 0.0 0.00 0.03 0.00 53 1016.4
20260502213058 48 0.0 0.0 0.00 0.03 0.00 51 1016.2
20260502211557 49 0.0 0.0 0.00 0.03 0.00 52 1016.1
20260502210055 48 0.0 0.0 0.00 0.03 0.00 50 1016.2
20260502203119 49 0.0 0.0 0.00 0.03 0.00 52 1016.2
20260502201618 49 0.0 0.0 0.00 0.03 0.00 52 1016.2
20260502200104 50 0.0 0.0 0.00 0.03 0.00 52 1016.3
20260502193058 49 0.0 0.0 0.00 0.03 0.00 53 1016.5
20260502191545 50 0.0 0.0 0.00 0.03 0.00 52 1016.5
20260502190046 48 0.0 0.0 0.00 0.03 0.00 54 1016.6
20260502183047 49 0.0 0.0 0.00 0.03 0.00 56 1016.6
20260502181546 49 0.0 0.0 0.00 0.03 0.00 53 1016.6
20260502163034 47 0.0 0.0 0.00 0.03 0.00 58 1017.0
20260502161534 48 0.0 0.0 0.00 0.05 0.00 57 1017.1
20260502151526 46 0.0 0.0 0.00 0.09 0.00 66 1017.2
20260502123059 38 0.0 0.0 0.00 0.09 0.00 90 1016.7
20260502121557 36 0.0 0.0 0.00 0.09 0.09 92 1016.5
20260502113111 32 0.0 0.0 0.00 0.09 0.09 90 1016.4
20260502111602 32 0.0 0.0 0.00 0.09 0.09 90 1016.1
20260502110056 32 0.0 0.0 0.00 0.09 0.09 90 1016.1
20260502103054 33 0.0 0.0 0.00 0.09 0.09 90 1016.2
20260502101607 33 0.0 0.0 0.00 0.09 0.09 90 1016.2
20260502070100 36 0.0 0.0 0.00 0.09 0.09 89 1016.0